Location: Arró
(42.7445°N, 0.7126°E)
Time: 08:51:53
(UTC+00:00)

Daily predictions for brighter satellites

Satellite Brightness Start Highest point End
(mag) Time Altitude Azimuth Time Altitude Azimuth Time Altitude Azimuth
Cosmos 1900 4.4 20:01:33 10° NNW 20:06:27 82° WSW 20:11:20 10° SSE
Cosmos 1125 Rocket 3.6 20:05:31 10° NNW 20:10:45 71° ENE 20:15:56 10° SSE
USA 186 3.4 20:11:53 10° E 20:12:44 11° ENE 20:13:35 10° NE
PAYLOAD B 4.3 20:07:13 10° SSE 20:12:48 85° ENE 20:18:26 10° NNW
Cosmos 2279 Rocket 4.5 20:12:03 10° SSW 20:18:15 66° W 20:24:28 10° N
Cosmos 1812 Rocket 4.3 20:16:47 10° SSW 20:21:08 56° W 20:25:29 10° N
Terra 2.0 20:20:12 10° S 20:24:53 76° WSW 20:29:37 10° NNW
CENTAUR R/B 2.9 20:21:02 10° SW 20:26:19 66° NW 20:33:07 10° NNE
Cosmos 44 Rocket 3.6 20:24:19 10° NNW 20:29:26 61° NE 20:34:01 12° SE
Meteor 1-27 Rocket 3.8 20:26:12 10° S 20:31:49 86° W 20:37:23 10° N
Cosmos 2208 Rocket 4.1 20:28:22 10° S 20:33:26 55° ESE 20:38:28 10° NNE
CZ-3 Stage 3 4.0 20:30:58 10° WSW 20:34:37 13° SW 20:37:03 10° SSW
BREEZE-M DEB (TANK) 4.4 20:33:54 10° WNW 20:36:12 20° N 20:37:51 10° NE
SPOT 3 Rocket 4.4 20:33:59 12° SE 20:38:14 35° ENE 20:42:53 10° N
Cosmos 2082 4.4 20:36:41 10° SW 20:42:11 57° WNW 20:47:44 10° NNE
Meteor 1-11 Rocket 4.5 20:37:33 10° NNW 20:42:53 51° W 20:48:15 10° SSW
Cosmos 2227 4.2 20:37:36 10° SSW 20:43:16 68° ESE 20:49:00 10° NNE
YAOGAN 11 4.2 20:40:21 10° NNE 20:44:45 59° E 20:49:04 10° S
Meteor 2-20 Rocket 4.3 20:40:06 10° S 20:45:50 73° E 20:51:47 10° NNE
CZ-4 R/B 3.4 20:43:12 10° SSW 20:46:13 23° W 20:49:17 10° NW
Ariane Rocket 4.0 20:44:08 14° SE 20:47:54 32° ENE 20:52:23 10° N
Okean-O 2.6 20:44:49 12° SSE 20:48:51 80° ENE 20:53:14 10° N
Cosmos 2266 Rocket 4.2 20:43:45 10° N 20:49:59 75° W 20:56:16 10° S
Spot 2 Rocket 3.5 20:45:37 10° SSE 20:50:40 86° WSW 20:55:47 10° NNW
Helios 1A Rocket 3.4 20:47:43 10° N 20:50:42 43° WNW 20:53:40 10° SW
CZ-4B R/B 3.9 20:48:36 10° S 20:53:55 52° W 20:59:11 10° NNW
NOSS 3-2 (A) 2.9 20:49:14 10° SSW 20:54:03 73° ESE 20:59:46 10° NE
Cosmos 1842 Rocket 3.5 20:51:42 10° S 20:56:07 74° E 21:00:33 10° NNE
Cosmos 1340 Rocket 3.6 20:54:29 10° N 20:57:54 32° ENE 20:59:47 20° ESE
USA 215 4.5 20:52:18 10° E 20:58:08 37° NNE 21:03:59 10° NW
Cosmos 773 Rocket 4.2 20:53:21 10° SSW 20:58:27 71° WNW 21:03:36 10° NNE
Cosmos 1603 4.1 20:53:59 10° NNW 20:59:36 53° ENE 21:03:42 18° SE
ADEOS 4.3 20:56:08 10° S 21:01:09 49° W 21:06:13 10° NNW
BREEZE-M DEB (TANK) 0.7 20:59:06 10° WNW 21:01:13 89° WSW 21:01:54 34° ESE
OAO 3 Rocket 3.9 20:59:55 10° WSW 21:03:54 30° S 21:05:58 21° SE
USA 245 3.4 21:03:10 21° SE 21:05:27 51° ENE 21:08:39 10° N
Cosmos 1844 Rocket 2.8 21:00:08 10° SSW 21:05:42 81° WNW 21:11:18 10° NNE
EXPRESS MD2 2.8 21:02:37 10° WNW 21:06:53 73° SSW 21:08:15 29° SE
SL-14 R/B 3.0 21:06:08 16° S 21:09:00 73° E 21:12:43 10° NNE
Meteor 2-10 Rocket 3.8 21:04:10 10° NNW 21:10:00 84° W 21:14:48 15° S
Cosmos 1238 Rocket 4.3 21:05:45 10° SSW 21:10:24 46° WNW 21:15:01 10° N
Cosmos 1553 Rocket 4.5 21:07:18 17° SSE 21:11:51 45° E 21:17:49 10° NNE
CZ-4C R/B 3.2 21:08:40 10° NW 21:15:56 71° WSW 21:22:43 19° SSE
Cosmos 1151 Rocket 3.4 21:14:27 23° SSE 21:16:43 45° E 21:20:52 10° NNE
Cosmos 1833 Rocket 4.4 21:14:42 10° N 21:18:57 21° NE 21:22:56 11° E
CZ-2C R/B 3.4 21:23:48 22° E 21:24:02 23° ENE 21:26:17 10° NNE
Cosmos 1844 4.3 21:21:10 10° SW 21:26:53 62° WNW 21:32:38 10° NNE
CZ-4B R/B 3.5 21:24:45 25° SSE 21:27:45 70° ENE 21:32:54 10° N
Okean O Rocket 2.8 21:24:41 12° SSW 21:28:18 37° W 21:32:22 10° NNW
Cosmos 1953 4.0 21:26:45 10° NNE 21:28:57 15° ENE 21:29:35 15° E
In-Cosmos 22 4.4 21:27:55 10° SSW 21:33:37 79° W 21:39:25 10° N
OAO 2 Rocket 4.0 21:28:58 10° SW 21:33:39 33° S 21:35:03 29° SE
NOSS 3-2 (C) 3.0 21:31:30 15° SSW 21:35:28 55° ESE 21:41:00 10° NE
BlueWalker 3 4.2 21:37:16 10° WSW 21:38:25 11° SW 21:39:18 11° SW
NOSS 2-3 (C) 4.3 21:42:37 25° E 21:42:37 25° E 21:44:39 10° ENE
USA 186 3.6 21:41:05 14° WSW 21:41:51 15° W 21:43:20 10° WNW
CZ-4B R/B 3.1 21:42:34 30° S 21:44:16 59° W 21:48:10 10° NNW
Cosmos 1461 2.2 21:40:49 10° NNW 21:44:20 87° ENE 21:45:06 52° SE
ATLAS 2AS CENTAUR R/B 4.4 21:45:35 10° WNW 21:50:36 22° WSW 21:55:35 10° SSW
Cosmos 2344 3.9 21:48:48 21° S 21:53:43 42° ESE 22:00:25 10° NE
Sich 1 4.0 21:51:11 10° NNW 21:55:11 40° W 21:57:32 21° SSW
Cosmos 1500 Rocket 3.4 21:50:53 10° N 21:55:15 85° W 21:56:47 39° S
Helios 1A 3.8 21:54:01 10° NE 21:57:27 29° E 21:57:27 29° E
Iridium 4 Rocket 3.6 21:55:04 32° SSE 21:57:36 70° E 22:02:44 10° N
Helios 1B rocket 4.3 21:57:42 13° ENE 21:58:11 13° ENE 21:59:56 10° NE
BREEZE-M R/B 3.9 21:57:27 33° S 21:59:05 45° SE 22:06:38 10° ENE
GP-B 3.0 21:55:25 10° N 21:59:49 88° E 22:01:23 40° S
Cosmos 1607 4.0 21:55:55 10° NNW 22:02:21 83° ENE 22:05:32 32° SE
Cosmos 1241 Rocket 4.4 22:02:40 23° SSW 22:06:33 65° ESE 22:12:43 10° NE
NOSS 2-3 (D) 3.1 22:07:03 29° SW 22:08:49 80° NW 22:12:33 10° NE
Cosmos 2285 Rocket 4.0 22:03:37 10° NNW 22:09:58 77° WSW 22:13:01 33° S
Cosmos 1538 Rocket 3.9 22:11:36 34° S 22:13:51 79° ESE 22:19:05 10° NNE
Cosmos 2315 Rocket 4.3 22:13:38 35° SE 22:15:54 50° E 22:21:53 10° NNE
Milstar 3 Cent rocket 4.2 22:13:33 10° SW 22:13:37 10° SW 22:13:37 10° SW
Cosmos 1943 Rocket 3.2 22:16:33 28° ESE 22:16:59 28° ESE 22:21:43 10° NE
Cosmos 1386 Rocket 4.5 22:11:13 10° N 22:17:37 86° W 22:20:34 34° S
Iridium 45 4.3 22:18:34 68° N 22:18:34 68° N 22:21:18 10° N
Cosmos 1328 Rocket 3.5 22:24:40 57° SE 22:25:16 65° E 22:29:35 10° NNE
Ariane Rocket 4.3 22:24:13 21° SW 22:26:43 31° W 22:31:13 10° NNW
Lacrosse 5 rocket 2.1 22:30:44 32° ENE 22:30:44 32° ENE 22:32:49 10° NE
CZ-2C R/B 4.5 22:25:12 10° NNE 22:29:31 36° E 22:29:46 36° ESE
NOSS 2-3 (E) 4.4 22:33:45 15° WSW 22:36:29 39° NW 22:40:02 10° NNE
Cosmos 1666 Rocket 3.3 22:32:36 10° N 22:36:58 80° E 22:37:29 67° SSE
Cosmos 1703 4.4 22:37:14 25° W 22:37:40 26° WNW 22:40:25 10° NNW
USA 215 3.2 22:37:29 33° SE 22:40:42 90° NE 22:47:16 10° NW
Cosmos 1743 Rocket 4.5 22:39:47 10° NNW 22:43:49 39° W 22:44:48 33° WSW
GEOS 3 Rocket 4.2 22:45:16 30° ESE 22:47:41 53° NE 22:52:54 10° NNW
S3M 4.1 22:48:41 34° SSW 22:51:23 69° W 22:57:30 10° N
Timation 1 Rocket 4.4 22:46:49 10° NNW 22:52:48 69° ENE 22:54:45 43° SE
Cosmos 1515 Rocket 3.8 22:55:38 54° E 22:55:38 54° E 22:59:53 10° NNE
USA 59 Rocket 1.5 23:01:29 19° ENE 23:01:29 19° ENE 23:02:33 10° NE
Meteor 1-15 Rocket 4.4 22:53:48 10° NNW 22:59:34 67° W 23:01:13 45° SSW
Spot 4 4.1 22:59:30 50° ESE 23:00:20 58° ENE 23:05:05 10° N
ARGOS Delta rocket 4.0 22:55:44 10° N 23:01:07 88° ESE 23:02:18 56° S
Cosmos 1833 Rocket 2.7 22:57:45 10° NNW 23:03:22 66° WSW 23:04:36 51° SSW
Cosmos 1953 3.4 23:00:46 10° NNW 23:03:46 30° W 23:03:46 30° W
Cosmos 1709 Rocket 4.2 23:00:59 10° NNW 23:07:15 63° W 23:09:28 40° SSW
Meteor 1-16 Rocket 4.1 23:01:48 10° N 23:07:22 86° W 23:08:42 55° S
Okean 3 4.1 23:09:18 42° ENE 23:09:18 42° ENE 23:12:37 10° NNE
Cosmos 2082 Rocket 3.6 23:04:05 10° N 23:09:01 30° NE 23:11:51 20° E
Meteor 1-23 Rocket 4.3 23:07:55 43° SW 23:09:41 68° WNW 23:15:15 10° N
Cosmos 2278 Rocket 2.2 23:09:54 54° SSE 23:10:45 60° ESE 23:16:19 10° NNE
Cosmos 1633 Rocket 3.6 23:10:31 10° NNW 23:14:43 47° W 23:15:02 46° WSW
Cosmos 1680 Rocket 3.4 23:22:43 57° SW 23:23:46 80° WNW 23:28:59 10° NNE
Cosmos 494 Rocket 3.9 23:24:39 64° SSW 23:25:30 89° ESE 23:30:46 10° NNE
Cosmos 1400 Rocket 3.2 23:22:26 10° N 23:25:30 52° NNE 23:25:30 52° NNE
Cosmos 1624 Rocket 4.0 23:20:57 10° NNW 23:26:16 74° ENE 23:27:15 58° SE
CZ-2C R/B 3.3 23:23:35 10° NNE 23:29:00 54° E 23:29:38 50° SE
Helios 1B rocket 3.4 23:31:35 32° WNW 23:31:35 32° WNW 23:34:01 10° NNW
Cosmos 1048 Rocket 4.3 23:31:20 46° ESE 23:31:32 47° ESE 23:36:33 10° NNE
Meteor 1-12 Rocket 4.2 23:26:51 10° NNW 23:32:32 76° W 23:33:43 56° SSW
Cosmos 2056 Rocket 3.3 23:27:52 10° NNW 23:33:00 87° ENE 23:33:39 69° SSE
ARIANE 5 R/B 2.8 23:36:34 61° WSW 23:36:37 61° W 23:41:02 10° NNW
USA 238 DEB 3.5 23:36:16 38° SW 23:38:47 78° NW 23:45:28 10° NE
USA 238 3.5 23:36:31 39° SW 23:39:00 79° NW 23:45:41 10° NE
ACS3 Solar Sail 2.6 23:36:59 10° NNE 23:42:09 33° E 23:43:11 31° ESE
BREEZE-M DEB (TANK) 4.5 23:35:17 10° W 23:48:47 50° N 23:53:02 10° ENE
ALOS 2 3.0 23:49:18 52° W 23:49:18 52° W 23:53:30 10° NNW
Geosat 4.4 23:44:53 10° NE 23:49:41 45° ESE 23:49:42 45° ESE
Cosmos 1441 Rocket 4.2 23:54:17 37° NNW 23:54:17 37° NNW 23:56:25 10° N
Cosmos 1933 Rocket 3.7 23:49:47 10° NNW 23:53:53 63° W 23:53:53 63° W
Cosmos 2369 Rocket 3.9 23:55:37 18° ESE 23:56:07 18° E 23:59:50 10° ENE
